This is the latest recevied weather packets stored in our database for station/object F4CYQ-10. If no packets are shown the sender has not sent any weather packets the latest 10 day(s).
| Time | Temp. | Humidity | Pressure | Rain* | Wind** | Luminosity | Snow |
|---|---|---|---|---|---|---|---|
| 1777432854 | 18.89° C | 60% | 1010.6 hPa | - | - | - | - |
| 1777431954 | 18.89° C | 60% | 1010.6 hPa | - | - | - | - |
| 1777431053 | 19.44° C | 60% | 1010.7 hPa | - | - | - | - |
| 1777430593 | 20° C | 60% | 1010.8 hPa | - | - | - | - |
| 1777430152 | 20° C | 60% | 1010.8 hPa | - | - | - | - |
| 1777429822 | 20° C | 61% | 1010.9 hPa | - | - | - | - |
| 1777429011 | 18.89° C | 60% | 1010.8 hPa | - | - | - | - |
| 1777428921 | 19.44° C | 61% | 1010.9 hPa | - | - | - | - |
| 1777428020 | 18.89° C | 60% | 1010.8 hPa | - | - | - | - |
| 1777427119 | 18.89° C | 60% | 1010.8 hPa | - | - | - | - |
| 1777426376 | 20° C | 60% | 1011 hPa | - | - | - | - |
| 1777425475 | 19.44° C | 60% | 1011 hPa | - | - | - | - |
| 1777424574 | 20° C | 60% | 1011.1 hPa | - | - | - | - |
| 1777423939 | 18.89° C | 60% | 1011.2 hPa | - | - | - | - |
| 1777423038 | 19.44° C | 60% | 1011.4 hPa | - | - | - | - |
| 1777422137 | 20.56° C | 60% | 1011.4 hPa | - | - | - | - |
| 1777421239 | 18.33° C | 60% | 1011.5 hPa | - | - | - | - |
| 1777420338 | 18.33° C | 60% | 1011.3 hPa | - | - | - | - |
| 1777419438 | 19.44° C | 59% | 1011.5 hPa | - | - | - | - |
| 1777419110 | 19.44° C | 60% | 1011.6 hPa | - | - | - | - |
| 1777418748 | 20.56° C | 60% | 1012.2 hPa | - | - | - | - |
| 1777418208 | 19.44° C | 60% | 1011.9 hPa | - | - | - | - |
| 1777417308 | 19.44° C | 60% | 1012 hPa | - | - | - | - |
| 1777416406 | 20.56° C | 60% | 1012.2 hPa | - | - | - | - |
| 1777415853 | 19.44° C | 60% | 1012.3 hPa | - | - | - | - |
* Rain since midnight (hover to see other rain measurements)
** Current wind speed in m/s (hover to see current wind gust speed)